| time (UTC) | temp F | wind direction | speed MPH | gust MPH | rain 1hr in | rain 24hr in | rain mn in | humidity % | barometer mb |
| 20260510173904 | 51 | 132 | 1.0 | 3.0 | 0.11 | 0.39 | 0.39 | 90 | 1014.7 |
| 20260510173404 | 51 | 105 | 2.0 | 3.0 | 0.11 | 0.38 | 0.38 | 90 | 1014.6 |
| 20260510172404 | 51 | 120 | 1.0 | 3.0 | 0.12 | 0.35 | 0.35 | 90 | 1014.3 |
| 20260510171904 | 51 | 125 | 0.0 | 2.0 | 0.13 | 0.35 | 0.35 | 89 | 1014.3 |
| 20260510171404 | 51 | 86 | 2.0 | 8.0 | 0.14 | 0.34 | 0.34 | 89 | 1014.2 |
| 20260510170905 | 51 | 105 | 2.0 | 3.0 | 0.14 | 0.33 | 0.33 | 89 | 1014.1 |
| 20260510170404 | 51 | 104 | 2.0 | 6.0 | 0.15 | 0.31 | 0.31 | 89 | 1014.0 |
| 20260510165904 | 51 | 96 | 2.0 | 6.0 | 0.18 | 0.31 | 0.31 | 89 | 1013.8 |
| 20260510165404 | 51 | 89 | 3.0 | 8.0 | 0.19 | 0.31 | 0.31 | 89 | 1013.7 |
| 20260510164904 | 51 | 86 | 3.0 | 7.0 | 0.18 | 0.29 | 0.29 | 89 | 1013.6 |
| 20260510164404 | 51 | 85 | 4.0 | 7.0 | 0.19 | 0.28 | 0.28 | 89 | 1013.5 |
| 20260510163904 | 51 | 94 | 2.0 | 3.0 | 0.19 | 0.28 | 0.28 | 89 | 1013.4 |
| 20260510163404 | 51 | 89 | 2.0 | 6.0 | 0.20 | 0.27 | 0.27 | 89 | 1013.3 |
| 20260510162904 | 52 | 108 | 4.0 | 8.0 | 0.20 | 0.26 | 0.26 | 89 | 1013.2 |
| 20260510162404 | 52 | 96 | 3.0 | 7.0 | 0.18 | 0.24 | 0.24 | 89 | 1013.2 |
| 20260510161904 | 52 | 94 | 2.0 | 8.0 | 0.16 | 0.21 | 0.21 | 89 | 1013.0 |
| 20260510161404 | 52 | 116 | 3.0 | 10.0 | 0.15 | 0.20 | 0.20 | 89 | 1012.9 |
| 20260510160904 | 52 | 104 | 5.0 | 12.0 | 0.14 | 0.19 | 0.19 | 89 | 1012.8 |
| 20260510160403 | 52 | 116 | 3.0 | 8.0 | 0.12 | 0.17 | 0.17 | 88 | 1012.7 |
| 20260510155904 | 52 | 92 | 2.0 | 9.0 | 0.10 | 0.13 | 0.13 | 89 | 1012.6 |
| 20260510155404 | 52 | 100 | 1.0 | 3.0 | 0.09 | 0.12 | 0.12 | 88 | 1012.5 |
| 20260510154904 | 52 | 76 | 0.0 | 2.0 | 0.10 | 0.11 | 0.11 | 88 | 1012.5 |
| 20260510154405 | 52 | 80 | 0.0 | 3.0 | 0.09 | 0.09 | 0.09 | 88 | 1012.4 |
| 20260510153904 | 52 | 82 | 2.0 | 6.0 | 0.09 | 0.09 | 0.09 | 88 | 1012.3 |
| 20260510153404 | 52 | 64 | 0.0 | 3.0 | 0.07 | 0.07 | 0.07 | 88 | 1012.2 |
| 20260510152904 | 52 | 71 | 2.0 | 7.0 | 0.06 | 0.06 | 0.06 | 88 | 1012.2 |
| 20260510152403 | 52 | 69 | 3.0 | 7.0 | 0.06 | 0.06 | 0.06 | 87 | 1012.1 |
| 20260510151904 | 52 | 95 | 3.0 | 10.0 | 0.06 | 0.06 | 0.06 | 87 | 1012.0 |
| 20260510151404 | 52 | 60 | 1.0 | 6.0 | 0.05 | 0.05 | 0.05 | 87 | 1011.9 |
| 20260510150904 | 52 | 73 | 3.0 | 10.0 | 0.05 | 0.05 | 0.05 | 87 | 1011.8 |
| 20260510150404 | 51 | 84 | 3.0 | 10.0 | 0.05 | 0.05 | 0.05 | 86 | 1011.7 |
| 20260510145404 | 51 | 56 | 2.0 | 7.0 | 0.02 | 0.02 | 0.02 | 85 | 1011.6 |
| 20260510144904 | 51 | 106 | 3.0 | 8.0 | 0.01 | 0.01 | 0.01 | 84 | 1011.4 |
| 20260510144404 | 51 | 126 | 2.0 | 8.0 | 0.01 | 0.01 | 0.01 | 83 | 1011.3 |
| 20260510143904 | 51 | 110 | 2.0 | 7.0 | 0.00 | 0.00 | 0.00 | 82 | 1011.3 |
| 20260510143404 | 52 | 79 | 2.0 | 8.0 | 0.00 | 0.00 | 0.00 | 80 | 1011.2 |
| 20260510142904 | 52 | 113 | 3.0 | 8.0 | 0.00 | 0.00 | 0.00 | 79 | 1011.2 |
| 20260510142404 | 52 | 127 | 2.0 | 12.0 | 0.00 | 0.00 | 0.00 | 77 | 1011.1 |
| 20260510141904 | 52 | 124 | 3.0 | 10.0 | 0.00 | 0.00 | 0.00 | 77 | 1011.1 |
| 20260510141404 | 52 | 117 | 1.0 | 5.0 | 0.00 | 0.00 | 0.00 | 77 | 1011.0 |
| 20260510140904 | 52 | 179 | 0.0 | 1.0 | 0.00 | 0.00 | 0.00 | 76 | 1011.0 |
| 20260510140404 | 52 | 168 | 0.0 | 1.0 | 0.00 | 0.00 | 0.00 | 76 | 1010.9 |
| 20260510135904 | 52 | 147 | 2.0 | 7.0 | 0.00 | 0.00 | 0.00 | 75 | 1010.8 |
| 20260510135403 | 52 | 103 | 1.0 | 3.0 | 0.00 | 0.00 | 0.00 | 76 | 1010.7 |
| 20260510134904 | 51 | 203 | 0.0 | 1.0 | 0.00 | 0.00 | 0.00 | 76 | 1010.5 |
| 20260510133403 | 51 | 150 | 0.0 | 1.0 | 0.00 | 0.00 | 0.00 | 78 | 1010.3 |
| 20260510132904 | 50 | 357 | 0.0 | 1.0 | 0.00 | 0.00 | 0.00 | 79 | 1010.2 |
| 20260510132404 | 50 | 342 | 0.0 | 1.0 | 0.00 | 0.00 | 0.00 | 79 | 1010.2 |
| 20260510131404 | 51 | 4 | 0.0 | 2.0 | 0.00 | 0.00 | 0.00 | 78 | 1010.1 |
| 20260510130904 | 51 | 350 | 1.0 | 3.0 | 0.00 | 0.00 | 0.00 | 77 | 1010.0 |
| 20260510130404 | 52 | 170 | 1.0 | 6.0 | 0.00 | 0.00 | 0.00 | 76 | 1009.9 |
| 20260510125907 | 52 | 161 | 2.0 | 6.0 | 0.00 | 0.00 | 0.00 | 75 | 1009.8 |
| 20260510125407 | 52 | 151 | 2.0 | 5.0 | 0.00 | 0.00 | 0.00 | 75 | 1009.8 |
| 20260510124407 | 52 | 174 | 1.0 | 3.0 | 0.00 | 0.00 | 0.00 | 76 | 1009.8 |
| 20260510123407 | 52 | 186 | 1.0 | 7.0 | 0.00 | 0.00 | 0.00 | 77 | 1009.7 |
| 20260510122907 | 52 | 205 | 0.0 | 3.0 | 0.00 | 0.00 | 0.00 | 78 | 1009.6 |
| 20260510122408 | 52 | 201 | 2.0 | 5.0 | 0.00 | 0.00 | 0.00 | 78 | 1009.6 |
| 20260510121907 | 52 | 199 | 2.0 | 9.0 | 0.00 | 0.00 | 0.00 | 78 | 1009.4 |
| 20260510120407 | 53 | 188 | 5.0 | 12.0 | 0.00 | 0.00 | 0.00 | 76 | 1009.1 |
| 20260510115907 | 53 | 189 | 4.0 | 8.0 | 0.00 | 0.06 | 0.00 | 75 | 1009.1 |
| 20260510115407 | 53 | 162 | 2.0 | 6.0 | 0.00 | 0.06 | 0.00 | 75 | 1009.0 |
| 20260510114907 | 53 | 317 | 1.0 | 3.0 | 0.00 | 0.06 | 0.00 | 75 | 1008.9 |
| 20260510114407 | 53 | 347 | 2.0 | 3.0 | 0.00 | 0.06 | 0.00 | 75 | 1008.8 |
| 20260510113907 | 53 | 189 | 2.0 | 5.0 | 0.00 | 0.06 | 0.00 | 75 | 1008.5 |
| 20260510113407 | 52 | 165 | 0.0 | 3.0 | 0.00 | 0.06 | 0.00 | 77 | 1008.5 |
| 20260510112907 | 52 | 201 | 1.0 | 5.0 | 0.00 | 0.06 | 0.00 | 77 | 1008.4 |
| 20260510112407 | 52 | 184 | 0.0 | 3.0 | 0.00 | 0.06 | 0.00 | 77 | 1008.3 |
| 20260510111907 | 52 | 297 | 1.0 | 3.0 | 0.00 | 0.06 | 0.00 | 77 | 1008.3 |
| 20260510111407 | 52 | 210 | 3.0 | 9.0 | 0.00 | 0.06 | 0.00 | 77 | 1008.3 |
| 20260510110907 | 53 | 205 | 1.0 | 9.0 | 0.00 | 0.06 | 0.00 | 77 | 1008.3 |
| 20260510110408 | 53 | 220 | 2.0 | 10.0 | 0.00 | 0.06 | 0.00 | 77 | 1008.2 |
| 20260510105907 | 53 | 197 | 3.0 | 18.0 | 0.00 | 0.06 | 0.00 | 77 | 1008.2 |
| 20260510105408 | 53 | 191 | 5.0 | 12.0 | 0.00 | 0.06 | 0.00 | 77 | 1008.1 |
| 20260510103909 | 53 | 198 | 6.0 | 12.0 | 0.00 | 0.06 | 0.00 | 76 | 1007.8 |
| 20260510103407 | 53 | 199 | 6.0 | 12.0 | 0.00 | 0.06 | 0.00 | 75 | 1007.8 |
| 20260510102906 | 53 | 190 | 6.0 | 10.0 | 0.00 | 0.06 | 0.00 | 75 | 1007.6 |
| 20260510102408 | 53 | 192 | 5.0 | 12.0 | 0.00 | 0.06 | 0.00 | 74 | 1007.5 |
| 20260510101908 | 53 | 194 | 4.0 | 10.0 | 0.00 | 0.06 | 0.00 | 75 | 1007.5 |
| 20260510101409 | 53 | 205 | 5.0 | 13.0 | 0.00 | 0.06 | 0.00 | 74 | 1007.3 |
| 20260510100907 | 54 | 194 | 4.0 | 13.0 | 0.00 | 0.06 | 0.00 | 73 | 1007.2 |
| 20260510100407 | 54 | 223 | 5.0 | 12.0 | 0.00 | 0.06 | 0.00 | 73 | 1007.1 |
| 20260510095907 | 54 | 209 | 4.0 | 12.0 | 0.00 | 0.06 | 0.00 | 73 | 1007.0 |
| 20260510095409 | 54 | 214 | 5.0 | 18.0 | 0.00 | 0.06 | 0.00 | 73 | 1006.9 |
| 20260510094907 | 53 | 205 | 7.0 | 15.0 | 0.00 | 0.06 | 0.00 | 73 | 1006.8 |
| 20260510094407 | 54 | 203 | 4.0 | 12.0 | 0.00 | 0.06 | 0.00 | 75 | 1006.8 |
| 20260510093909 | 54 | 205 | 6.0 | 20.0 | 0.00 | 0.06 | 0.00 | 74 | 1006.6 |
| 20260510093407 | 53 | 205 | 6.0 | 12.0 | 0.00 | 0.06 | 0.00 | 75 | 1006.6 |
| 20260510092407 | 53 | 204 | 5.0 | 12.0 | 0.00 | 0.06 | 0.00 | 77 | 1006.5 |
| 20260510091907 | 53 | 192 | 6.0 | 12.0 | 0.00 | 0.06 | 0.00 | 77 | 1006.4 |
| 20260510091408 | 54 | 215 | 6.0 | 18.0 | 0.00 | 0.06 | 0.00 | 78 | 1006.2 |
| 20260510090408 | 54 | 300 | 5.0 | 14.0 | 0.00 | 0.06 | 0.00 | 76 | 1005.9 |
| 20260510085907 | 55 | 202 | 6.0 | 20.0 | 0.00 | 0.06 | 0.00 | 75 | 1005.8 |
| 20260510085407 | 55 | 211 | 9.0 | 20.0 | 0.00 | 0.06 | 0.00 | 75 | 1005.6 |
| 20260510084408 | 55 | 227 | 9.0 | 28.0 | 0.00 | 0.06 | 0.00 | 69 | 1005.6 |
| 20260510083907 | 55 | 195 | 12.0 | 25.0 | 0.00 | 0.06 | 0.00 | 71 | 1005.3 |
| 20260510082907 | 54 | 187 | 4.0 | 16.0 | 0.00 | 0.06 | 0.00 | 76 | 1005.2 |
| 20260510082409 | 54 | 194 | 7.0 | 18.0 | 0.00 | 0.06 | 0.00 | 78 | 1005.2 |
| 20260510080906 | 54 | 193 | 5.0 | 17.0 | 0.00 | 0.06 | 0.00 | 79 | 1005.0 |
| 20260510080407 | 54 | 212 | 7.0 | 16.0 | 0.00 | 0.06 | 0.00 | 79 | 1004.8 |
| 20260510075907 | 54 | 224 | 7.0 | 15.0 | 0.00 | 0.06 | 0.00 | 79 | 1004.8 |
| 20260510075407 | 54 | 215 | 6.0 | 20.0 | 0.00 | 0.06 | 0.00 | 79 | 1004.7 |
| 20260510074907 | 55 | 203 | 9.0 | 18.0 | 0.00 | 0.06 | 0.00 | 78 | 1004.6 |
| 20260510074409 | 54 | 218 | 9.0 | 20.0 | 0.00 | 0.06 | 0.00 | 78 | 1004.4 |
| 20260510073907 | 55 | 201 | 9.0 | 20.0 | 0.00 | 0.06 | 0.00 | 78 | 1004.4 |
| 20260510073408 | 55 | 204 | 9.0 | 20.0 | 0.00 | 0.06 | 0.00 | 78 | 1004.5 |
| 20260510072907 | 55 | 201 | 6.0 | 15.0 | 0.00 | 0.06 | 0.00 | 78 | 1004.3 |
| 20260510071907 | 55 | 226 | 6.0 | 17.0 | 0.00 | 0.06 | 0.00 | 77 | 1004.0 |
| 20260510071408 | 55 | 210 | 10.0 | 21.0 | 0.00 | 0.06 | 0.00 | 77 | 1003.9 |
| 20260510070907 | 55 | 213 | 7.0 | 17.0 | 0.00 | 0.06 | 0.00 | 77 | 1003.9 |
| 20260510065908 | 55 | 188 | 9.0 | 20.0 | 0.00 | 0.06 | 0.00 | 77 | 1003.4 |
| 20260510065407 | 55 | 206 | 9.0 | 15.0 | 0.00 | 0.06 | 0.00 | 76 | 1003.3 |
| 20260510064907 | 55 | 210 | 7.0 | 16.0 | 0.00 | 0.06 | 0.00 | 77 | 1003.3 |
| 20260510064407 | 55 | 209 | 6.0 | 16.0 | 0.00 | 0.06 | 0.00 | 77 | 1003.3 |
| 20260510063908 | 55 | 213 | 5.0 | 12.0 | 0.00 | 0.06 | 0.00 | 77 | 1003.2 |
| 20260510063408 | 56 | 220 | 4.0 | 10.0 | 0.00 | 0.06 | 0.00 | 77 | 1003.0 |
| 20260510062907 | 56 | 229 | 6.0 | 15.0 | 0.00 | 0.06 | 0.00 | 77 | 1003.0 |
| 20260510062409 | 56 | 205 | 7.0 | 16.0 | 0.00 | 0.06 | 0.00 | 77 | 1002.8 |
| 20260510061908 | 56 | 214 | 7.0 | 15.0 | 0.00 | 0.06 | 0.00 | 77 | 1002.8 |
| 20260510060908 | 56 | 212 | 6.0 | 12.0 | 0.00 | 0.06 | 0.00 | 78 | 1002.6 |
| 20260510055908 | 56 | 230 | 5.0 | 14.0 | 0.00 | 0.06 | 0.00 | 77 | 1002.4 |
| 20260510055407 | 57 | 221 | 6.0 | 13.0 | 0.00 | 0.06 | 0.00 | 76 | 1002.3 |
| 20260510054907 | 57 | 229 | 5.0 | 15.0 | 0.00 | 0.06 | 0.00 | 75 | 1002.2 |
| 20260510054407 | 57 | 214 | 7.0 | 20.0 | 0.00 | 0.06 | 0.00 | 75 | 1002.2 |
| 20260510053907 | 57 | 209 | 5.0 | 15.0 | 0.00 | 0.06 | 0.00 | 75 | 1002.0 |
| 20260510053407 | 57 | 223 | 7.0 | 16.0 | 0.00 | 0.06 | 0.00 | 75 | 1001.9 |
| 20260510052907 | 58 | 197 | 5.0 | 15.0 | 0.00 | 0.06 | 0.00 | 75 | 1001.8 |
| 20260510052407 | 58 | 245 | 7.0 | 14.0 | 0.00 | 0.06 | 0.00 | 74 | 1001.8 |
| 20260510051907 | 58 | 213 | 6.0 | 14.0 | 0.00 | 0.06 | 0.00 | 74 | 1001.7 |
| 20260510051407 | 58 | 224 | 5.0 | 18.0 | 0.00 | 0.06 | 0.00 | 75 | 1001.6 |
| 20260510050907 | 59 | 253 | 3.0 | 12.0 | 0.00 | 0.06 | 0.00 | 75 | 1001.5 |
| 20260510050406 | 59 | 220 | 5.0 | 12.0 | 0.00 | 0.06 | 0.00 | 74 | 1001.5 |
| 20260510045907 | 60 | 241 | 5.0 | 14.0 | 0.00 | 0.06 | 0.00 | 74 | 1001.4 |
| 20260510045407 | 60 | 210 | 6.0 | 12.0 | 0.00 | 0.06 | 0.00 | 74 | 1001.3 |
| 20260510044406 | 60 | 330 | 4.0 | 12.0 | 0.00 | 0.06 | 0.00 | 74 | 1001.2 |
| 20260510042907 | 61 | 316 | 5.0 | 12.0 | 0.00 | 0.06 | 0.00 | 74 | 1001.0 |
| 20260510042407 | 61 | 292 | 5.0 | 13.0 | 0.00 | 0.06 | 0.00 | 74 | 1000.9 |
| 20260510041406 | 61 | 280 | 5.0 | 13.0 | 0.00 | 0.06 | 0.00 | 73 | 1000.8 |
| 20260510040907 | 62 | 223 | 6.0 | 13.0 | 0.00 | 0.06 | 0.00 | 74 | 1000.9 |
| 20260510040407 | 62 | 206 | 6.0 | 15.0 | 0.00 | 0.06 | 0.00 | 73 | 1000.8 |
| 20260510035907 | 62 | 208 | 8.0 | 17.0 | 0.00 | 0.06 | 0.00 | 72 | 1000.6 |
| 20260510035407 | 62 | 322 | 6.0 | 15.0 | 0.00 | 0.06 | 0.00 | 71 | 1000.6 |
| 20260510034407 | 63 | 333 | 5.0 | 16.0 | 0.00 | 0.06 | 0.00 | 72 | 1000.4 |
| 20260510033907 | 63 | 249 | 5.0 | 18.0 | 0.00 | 0.06 | 0.00 | 70 | 1000.3 |
| 20260510033407 | 63 | 279 | 6.0 | 14.0 | 0.00 | 0.06 | 0.00 | 72 | 1000.2 |
| 20260510032908 | 63 | 290 | 6.0 | 17.0 | 0.00 | 0.06 | 0.00 | 71 | 1000.3 |
| 20260510032407 | 63 | 298 | 7.0 | 15.0 | 0.00 | 0.06 | 0.00 | 72 | 1000.3 |
| 20260510030408 | 63 | 227 | 9.0 | 14.0 | 0.00 | 0.06 | 0.00 | 72 | 1000.2 |
| 20260510025907 | 63 | 307 | 6.0 | 13.0 | 0.00 | 0.06 | 0.00 | 72 | 1000.1 |
| 20260510025408 | 63 | 327 | 6.0 | 16.0 | 0.00 | 0.06 | 0.00 | 72 | 1000.1 |
| 20260510024907 | 63 | 275 | 7.0 | 24.0 | 0.00 | 0.06 | 0.00 | 72 | 1000.1 |
| 20260510024406 | 63 | 326 | 7.0 | 20.0 | 0.00 | 0.06 | 0.00 | 73 | 1000.1 |
| 20260510023907 | 63 | 324 | 5.0 | 18.0 | 0.00 | 0.06 | 0.00 | 73 | 1000.0 |
| 20260510023408 | 63 | 271 | 7.0 | 16.0 | 0.00 | 0.06 | 0.00 | 74 | 999.9 |
| 20260510022907 | 63 | 240 | 7.0 | 22.0 | 0.00 | 0.06 | 0.00 | 74 | 999.9 |
| 20260510022407 | 63 | 227 | 10.0 | 22.0 | 0.00 | 0.06 | 0.00 | 74 | 999.9 |
| 20260510021407 | 63 | 274 | 10.0 | 21.0 | 0.00 | 0.06 | 0.00 | 72 | 999.7 |
| 20260510020907 | 63 | 327 | 8.0 | 18.0 | 0.00 | 0.06 | 0.00 | 73 | 999.7 |
| 20260510020407 | 63 | 255 | 8.0 | 20.0 | 0.00 | 0.06 | 0.00 | 73 | 999.7 |
| 20260510015907 | 63 | 245 | 6.0 | 20.0 | 0.00 | 0.06 | 0.00 | 74 | 999.7 |
| 20260510015407 | 63 | 209 | 12.0 | 23.0 | 0.00 | 0.06 | 0.00 | 73 | 999.6 |
| 20260510014907 | 64 | 215 | 9.0 | 23.0 | 0.00 | 0.06 | 0.00 | 74 | 999.5 |
| 20260510014407 | 64 | 277 | 6.0 | 16.0 | 0.00 | 0.06 | 0.00 | 76 | 999.6 |
| 20260510013907 | 63 | 240 | 6.0 | 20.0 | 0.00 | 0.06 | 0.00 | 76 | 999.5 |
| 20260510013406 | 63 | 238 | 8.0 | 18.0 | 0.00 | 0.06 | 0.00 | 76 | 999.5 |
| 20260510012907 | 63 | 342 | 5.0 | 20.0 | 0.00 | 0.06 | 0.00 | 76 | 999.6 |
| 20260510012407 | 63 | 191 | 7.0 | 23.0 | 0.00 | 0.06 | 0.00 | 75 | 999.6 |
| 20260510011907 | 62 | 231 | 10.0 | 22.0 | 0.00 | 0.06 | 0.00 | 73 | 999.8 |
| 20260510010907 | 63 | 208 | 11.0 | 26.0 | 0.00 | 0.06 | 0.00 | 74 | 999.6 |
| 20260510010407 | 63 | 274 | 7.0 | 21.0 | 0.00 | 0.06 | 0.00 | 75 | 999.6 |
| 20260510005907 | 63 | 200 | 6.0 | 23.0 | 0.00 | 0.06 | 0.00 | 76 | 999.7 |
| 20260510004906 | 63 | 303 | 5.0 | 15.0 | 0.00 | 0.06 | 0.00 | 76 | 999.9 |
| 20260510004407 | 63 | 299 | 6.0 | 16.0 | 0.00 | 0.06 | 0.00 | 76 | 999.8 |
| 20260510003906 | 63 | 318 | 7.0 | 20.0 | 0.00 | 0.06 | 0.00 | 76 | 999.8 |
| 20260510002907 | 63 | 224 | 6.0 | 15.0 | 0.00 | 0.06 | 0.00 | 75 | 999.8 |
| 20260510002407 | 63 | 213 | 8.0 | 20.0 | 0.00 | 0.06 | 0.00 | 76 | 999.8 |
| 20260510001407 | 63 | 219 | 7.0 | 20.0 | 0.00 | 0.06 | 0.00 | 77 | 999.8 |
| 20260510000907 | 62 | 255 | 6.0 | 16.0 | 0.00 | 0.06 | 0.00 | 76 | 999.9 |
| 20260510000407 | 62 | 216 | 12.0 | 32.0 | 0.00 | 0.06 | 0.00 | 75 | 1000.0 |
| 20260509235907 | 63 | 257 | 8.0 | 16.0 | 0.00 | 0.06 | 0.00 | 77 | 1000.0 |
| 20260509235407 | 62 | 206 | 12.0 | 25.0 | 0.00 | 0.06 | 0.00 | 76 | 1000.0 |
| 20260509234407 | 62 | 226 | 8.0 | 18.0 | 0.00 | 0.06 | 0.00 | 78 | 1000.0 |
| 20260509233907 | 62 | 327 | 7.0 | 15.0 | 0.00 | 0.06 | 0.00 | 78 | 1000.2 |
| 20260509233407 | 62 | 342 | 9.0 | 20.0 | 0.00 | 0.06 | 0.00 | 77 | 1000.3 |
| 20260509232407 | 62 | 347 | 8.0 | 21.0 | 0.00 | 0.06 | 0.00 | 78 | 1000.3 |
| 20260509231907 | 62 | 342 | 6.0 | 21.0 | 0.00 | 0.06 | 0.00 | 79 | 1000.3 |
| 20260509231407 | 62 | 335 | 7.0 | 21.0 | 0.00 | 0.06 | 0.00 | 78 | 1000.4 |
| 20260509230907 | 62 | 322 | 7.0 | 17.0 | 0.00 | 0.06 | 0.00 | 78 | 1000.4 |
| 20260509230407 | 62 | 298 | 6.0 | 16.0 | 0.00 | 0.06 | 0.00 | 78 | 1000.4 |
| 20260509225907 | 61 | 280 | 6.0 | 17.0 | 0.00 | 0.06 | 0.00 | 79 | 1000.4 |
| 20260509225406 | 61 | 308 | 6.0 | 15.0 | 0.00 | 0.06 | 0.00 | 77 | 1000.4 |
| 20260509224907 | 62 | 298 | 6.0 | 17.0 | 0.00 | 0.06 | 0.00 | 77 | 1000.4 |
| 20260509224407 | 62 | 335 | 7.0 | 16.0 | 0.00 | 0.06 | 0.00 | 76 | 1000.3 |
| 20260509223907 | 62 | 307 | 3.0 | 13.0 | 0.00 | 0.06 | 0.00 | 77 | 1000.4 |
| 20260509223406 | 61 | 249 | 6.0 | 14.0 | 0.00 | 0.07 | 0.00 | 77 | 1000.4 |
| 20260509222906 | 61 | 332 | 4.0 | 16.0 | 0.00 | 0.07 | 0.00 | 77 | 1000.4 |
| 20260509222407 | 61 | 284 | 6.0 | 23.0 | 0.00 | 0.07 | 0.00 | 77 | 1000.4 |
| 20260509221907 | 61 | 320 | 9.0 | 24.0 | 0.00 | 0.07 | 0.00 | 77 | 1000.3 |
| 20260509221407 | 60 | 313 | 6.0 | 20.0 | 0.00 | 0.07 | 0.00 | 78 | 1000.3 |
| 20260509220407 | 60 | 330 | 7.0 | 18.0 | 0.00 | 0.07 | 0.00 | 78 | 1000.2 |
| 20260509215907 | 60 | 338 | 10.0 | 20.0 | 0.00 | 0.07 | 0.00 | 78 | 1000.1 |
| 20260509214907 | 60 | 287 | 6.0 | 15.0 | 0.00 | 0.08 | 0.00 | 79 | 1000.2 |
| 20260509214407 | 60 | 320 | 7.0 | 20.0 | 0.00 | 0.08 | 0.00 | 79 | 1000.2 |
| 20260509213907 | 59 | 345 | 6.0 | 18.0 | 0.00 | 0.08 | 0.00 | 79 | 1000.3 |
| 20260509213407 | 59 | 304 | 7.0 | 15.0 | 0.00 | 0.08 | 0.00 | 80 | 1000.3 |
| 20260509212907 | 59 | 267 | 5.0 | 16.0 | 0.00 | 0.08 | 0.00 | 80 | 1000.4 |
| 20260509212408 | 59 | 231 | 6.0 | 16.0 | 0.00 | 0.08 | 0.00 | 80 | 1000.5 |
| 20260509211906 | 59 | 242 | 5.0 | 15.0 | 0.00 | 0.09 | 0.00 | 80 | 1000.5 |
| 20260509211407 | 58 | 227 | 6.0 | 17.0 | 0.00 | 0.09 | 0.00 | 80 | 1000.3 |
| 20260509210908 | 58 | 320 | 5.0 | 15.0 | 0.00 | 0.09 | 0.00 | 80 | 1000.3 |
| 20260509205907 | 58 | 296 | 6.0 | 18.0 | 0.00 | 0.09 | 0.00 | 81 | 1000.2 |
| 20260509205409 | 57 | 295 | 6.0 | 16.0 | 0.00 | 0.09 | 0.00 | 81 | 1000.2 |
| 20260509203908 | 57 | 332 | 6.0 | 16.0 | 0.00 | 0.10 | 0.00 | 82 | 1000.0 |
| 20260509203409 | 56 | 265 | 5.0 | 13.0 | 0.00 | 0.10 | 0.00 | 83 | 1000.0 |
| 20260509202907 | 56 | 217 | 6.0 | 16.0 | 0.00 | 0.10 | 0.00 | 84 | 999.9 |
| 20260509202408 | 56 | 335 | 7.0 | 15.0 | 0.00 | 0.10 | 0.00 | 85 | 999.9 |
| 20260509201907 | 56 | 311 | 5.0 | 12.0 | 0.00 | 0.10 | 0.00 | 85 | 999.9 |
| 20260509201409 | 56 | 295 | 4.0 | 12.0 | 0.00 | 0.10 | 0.00 | 85 | 999.9 |
| 20260509200906 | 56 | 321 | 6.0 | 15.0 | 0.00 | 0.10 | 0.00 | 85 | 999.8 |
| 20260509195409 | 55 | 323 | 5.0 | 12.0 | 0.00 | 0.10 | 0.00 | 87 | 999.7 |
| 20260509194907 | 55 | 292 | 6.0 | 17.0 | 0.00 | 0.10 | 0.00 | 87 | 999.6 |
| 20260509194408 | 55 | 213 | 3.0 | 16.0 | 0.00 | 0.10 | 0.00 | 87 | 999.7 |
| 20260509193907 | 56 | 250 | 5.0 | 12.0 | 0.00 | 0.10 | 0.00 | 87 | 999.6 |
| 20260509193408 | 56 | 202 | 5.0 | 12.0 | 0.00 | 0.10 | 0.00 | 87 | 999.4 |
| 20260509192407 | 56 | 287 | 6.0 | 17.0 | 0.00 | 0.10 | 0.00 | 87 | 999.4 |
| 20260509191907 | 56 | 329 | 4.0 | 12.0 | 0.00 | 0.10 | 0.00 | 87 | 999.4 |
| 20260509191408 | 56 | 269 | 3.0 | 12.0 | 0.00 | 0.10 | 0.00 | 87 | 999.3 |
| 20260509190906 | 56 | 312 | 5.0 | 12.0 | 0.00 | 0.10 | 0.00 | 87 | 999.3 |
| 20260509190408 | 56 | 279 | 2.0 | 9.0 | 0.00 | 0.10 | 0.00 | 86 | 999.4 |
| 20260509185906 | 56 | 306 | 4.0 | 17.0 | 0.00 | 0.10 | 0.00 | 86 | 999.4 |
| 20260509185407 | 56 | 266 | 6.0 | 15.0 | 0.00 | 0.10 | 0.00 | 86 | 999.3 |
| 20260509184907 | 56 | 255 | 6.0 | 20.0 | 0.00 | 0.10 | 0.00 | 85 | 999.3 |
| 20260509183907 | 56 | 222 | 8.0 | 20.0 | 0.00 | 0.10 | 0.00 | 85 | 999.1 |
| 20260509183408 | 56 | 265 | 7.0 | 16.0 | 0.00 | 0.10 | 0.00 | 85 | 999.1 |
| 20260509182907 | 56 | 244 | 7.0 | 20.0 | 0.00 | 0.10 | 0.00 | 85 | 999.1 |
| 20260509182409 | 56 | 285 | 5.0 | 13.0 | 0.00 | 0.10 | 0.00 | 85 | 999.2 |
| 20260509181906 | 56 | 241 | 6.0 | 15.0 | 0.00 | 0.10 | 0.00 | 85 | 999.3 |
| 20260509181407 | 56 | 281 | 5.0 | 13.0 | 0.00 | 0.10 | 0.00 | 84 | 999.2 |
| 20260509180907 | 56 | 209 | 5.0 | 16.0 | 0.00 | 0.10 | 0.00 | 84 | 999.2 |
| 20260509180409 | 56 | 286 | 8.0 | 20.0 | 0.00 | 0.10 | 0.00 | 85 | 999.2 |
| 20260509175907 | 56 | 327 | 5.0 | 17.0 | 0.00 | 0.10 | 0.00 | 85 | 999.2 |
| 20260509175407 | 56 | 269 | 6.0 | 13.0 | 0.00 | 0.10 | 0.00 | 85 | 999.2 |
| 20260509174906 | 56 | 224 | 6.0 | 17.0 | 0.00 | 0.10 | 0.00 | 85 | 999.1 |
| 20260509174409 | 56 | 312 | 6.0 | 20.0 | 0.00 | 0.10 | 0.00 | 85 | 999.1 |